Dewpoint
46 45 44 41 38 38 36 34 33 29 28 27 27 28 30 30 30 26 27 29 29 30 30 32 33 33 34 33 33 33 33 33 33 33 33 33 33 32
44 41 39 35 34 35 35 33 32 31 29 26 27 28 28 29 29 25 25 26 26 27 30 32 33 32 32 32 32 32 32 32 32 32 32 32 32 31
42 41 38 36 35 32 32 30 29 29 27 27 27 26 26 26 25 25 25 24 24 26 30 32 29 30 31 31 31 31 31 31 31 31 31 31 32 32
39 38 34 30 29 30 27 25 25 27 26 26 26 26 27 28 27 24 22 22 23 24 30 28 27 28 29 30 29 28 29 29 30 29 30 30 30 30
35 33 31 28 27 26 25 24 25 26 27 27 27 27 27 26 25 24 23 24 23 24 27 25 26 26 28 26 26 26 27 29 28 28 29 28 28 29
34 31 29 27 26 25 24 24 24 25 27 26 26 25 25 25 23 23 22 23 22 23 24 23 24 25 24 24 23 25 28 27 27 26 26 26 27 26
31 30 29 28 28 26 26 24 24 23 23 22 22 23 22 22 22 23 23 23 22 23 20 20 20 20 19 20 20 25 27 26 26 26 25 25 25 27
30 31 31 32 30 29 27 26 24 22 22 22 22 21 22 22 23 24 23 20 18 22 19 18 20 18 17 17 22 26 26 25 25 25 25 24 24 24
32 32 31 31 31 30 29 28 27 27 25 23 21 22 23 23 25 23 21 19 18 19 20 18 19 16 17 17 22 24 23 24 24 24 24 23 23 23
33 33 33 32 30 28 28 27 26 25 25 25 25 25 26 25 23 22 21 21 19 19 21 19 17 16 18 18 21 23 22 22 23 23 23 23 23 22
32 32 31 31 29 30 28 26 27 28 29 29 29 29 27 26 24 21 20 19 17 16 21 18 18 18 17 18 17 18 20 21 21 22 22 22 21 21
31 31 31 32 30 28 25 24 25 25 25 22 22 22 22 23 23 21 21 19 18 17 18 19 18 18 17 16 16 17 17 18 20 21 21 20 21 21
30 30 30 30 29 27 25 24 23 23 23 21 21 21 21 20 20 20 21 21 19 18 18 22 20 19 18 17 17 16 16 17 18 18 18 19 21 21
28 29 29 28 28 27 26 27 26 23 21 21 20 19 19 20 20 21 21 21 21 20 21 22 22 20 19 18 16 16 17 18 17 18 18 20 19 19
28 29 29 28 28 28 27 25 23 21 20 19 18 19 20 21 20 20 21 20 21 20 19 21 22 22 21 19 18 18 18 17 18 18 19 19 18 19
29 29 27 27 27 26 24 22 21 20 19 19 19 20 20 20 19 20 19 19 19 19 20 20 21 21 21 20 19 19 18 18 19 19 19 19 18 17
27 26 24 24 22 21 21 22 23 20 20 20 19 18 18 17 18 19 19 18 17 17 18 19 20 20 21 21 19 17 18 19 19 19 18 17 17 16
24 23 22 21 20 20 20 20 21 20 20 20 20 19 18 17 19 18 18 17 17 17 18 19 18 18 18 17 18 18 19 18 18 18 17 17 16 17
22 21 21 20 20 20 19 20 20 20 20 20 20 20 20 19 18 16 16 16 17 18 18 17 17 16 15 14 17 18 18 18 18 16 16 16 17 18
20 20 20 20 19 19 19 19 20 19 19 20 20 19 18 18 17 16 16 16 18 18 17 18 18 19 18 17 17 18 18 17 17 16 17 18 17 17
19 19 19 19 19 19 19 19 19 19 19 19 19 18 18 18 17 16 16 17 18 16 16 18 19 21 20 18 16 15 15 16 16 17 18 17 16 16
19 19 19 19 19 19 19 19 20 19 21 20 18 18 18 18 18 16 16 16 16 17 17 18 19 20 18 16 15 15 14 14 15 16 16 17 19 15
19 19 19 19 19 19 19 19 19 19 20 20 19 18 18 18 17 17 16 16 16 17 18 17 18 19 17 16 15 14 13 13 14 14 15 15 16 16
Wind_Speed
13 16 15 14 11 6 10 13 9 9 13 9 5 8 7 5 4 1 2 5 7 9 11 11 11 10 10 13 15 16 16 17 18 21 22 22 23 24
15 17 10 8 7 10 10 11 6 6 7 3 2 5 7 5 5 2 2 5 7 10 10 8 7 11 12 14 15 15 16 18 20 21 22 22 23 25
12 15 13 11 10 7 9 8 7 5 8 2 3 5 4 7 3 0 3 4 6 9 8 4 10 12 14 14 14 15 18 19 20 21 21 22 24 24
17 17 14 9 11 7 8 8 9 6 7 10 5 4 3 2 1 2 3 3 6 6 4 6 13 13 13 12 14 17 18 18 19 20 21 21 25 29
20 20 18 16 14 11 12 12 9 8 7 10 6 3 3 1 1 2 4 5 5 5 2 11 13 12 10 13 16 17 16 17 19 20 20 23 27 28
15 16 16 15 14 14 13 13 11 10 10 11 7 5 3 3 1 2 4 5 6 2 4 12 11 9 11 14 15 15 17 17 18 21 24 27 26 29
16 14 13 13 13 11 12 11 12 11 10 8 7 4 4 3 1 1 3 9 3 1 10 10 8 7 10 13 12 15 16 19 21 24 26 26 29 29
21 17 17 17 16 17 18 13 10 11 9 5 4 6 5 3 1 4 4 5 4 2 12 12 5 10 10 12 16 14 17 20 24 24 25 27 29 30
22 19 17 15 17 17 19 18 16 13 8 7 9 6 5 1 2 2 2 3 5 9 11 7 7 13 15 15 14 14 19 23 23 24 26 28 28 29
17 17 17 16 15 17 17 17 14 12 11 10 10 10 10 6 3 1 2 6 6 4 8 5 13 16 19 15 12 14 22 24 24 26 28 29 27 31
16 15 16 16 18 18 16 17 14 13 14 15 16 14 11 6 5 4 6 5 2 4 5 10 9 16 18 14 12 20 24 22 26 27 28 26 30 31
14 15 15 15 18 17 15 15 15 11 12 11 11 10 8 8 9 6 2 6 7 4 3 12 12 12 9 7 16 18 19 20 26 27 26 29 30 22
15 13 12 17 15 14 12 9 11 12 12 10 8 6 6 6 4 4 4 4 5 4 7 8 8 11 9 15 16 18 14 20 20 20 22 28 30 26
15 13 14 16 16 15 12 16 15 12 9 8 7 5 4 4 5 6 5 5 5 9 12 7 6 11 12 18 16 18 19 19 18 19 21 24 27 27
14 17 20 18 17 16 16 14 11 8 8 7 5 4 5 5 6 6 7 8 8 5 6 8 9 12 13 14 16 20 21 16 17 21 21 22 22 21
20 16 15 15 15 14 11 9 8 7 7 6 6 5 6 6 6 8 7 9 7 7 8 9 10 11 13 16 17 20 19 15 21 20 22 23 20 19
17 12 12 10 11 10 8 7 7 7 7 6 6 6 5 7 7 8 6 6 6 10 13 12 10 12 14 16 16 17 19 20 19 21 22 24 22 19
12 13 12 11 11 10 9 8 6 7 6 6 5 5 5 6 6 7 5 6 7 9 11 12 12 15 15 9 8 16 17 21 20 20 20 20 23 22
10 11 12 11 10 9 8 7 5 6 6 5 4 3 3 4 5 5 7 6 9 10 11 9 8 9 17 21 14 7 19 21 21 19 18 18 21 24
10 13 12 11 10 8 7 7 7 6 5 2 3 2 2 2 4 5 7 8 11 12 13 11 9 12 16 15 16 21 18 17 18 20 21 19 17 22
11 10 10 10 9 8 7 6 5 4 2 2 1 0 1 2 4 5 7 11 12 9 13 15 14 19 13 10 12 16 17 21 19 17 18 19 19 18
10 11 9 9 9 8 7 6 4 3 3 2 3 2 2 3 4 6 8 9 11 10 12 14 15 12 8 8 16 18 18 19 21 18 14 13 15 12
10 9 9 9 8 8 7 6 4 4 4 4 3 2 3 4 4 6 7 8 9 11 12 12 11 9 13 9 15 17 18 19 17 19 17 24 23 19
Wind_Direction
171 176 175 194 192 176 181 172 172 183 207 197 158 175 171 167 163 128 2 337 338 336 331 322 319 313 316 318 314 314 314 315 313 311 310 309 311 308
163 170 165 174 196 188 189 183 178 158 166 162 160 146 167 150 135 109 324 343 337 339 323 314 334 326 320 316 314 312 315 314 313 311 312 312 310 313
153 165 169 170 193 181 176 163 146 136 137 139 102 136 145 161 164 45 5 334 334 323 301 336 333 326 323 319 318 317 313 314 314 313 313 312 316 319
163 158 154 155 145 136 137 138 145 142 134 147 135 123 97 57 25 316 336 321 321 294 280 340 342 334 322 316 317 318 319 317 314 315 314 322 322 316
159 152 150 147 145 148 133 127 122 118 114 140 133 128 104 92 275 288 320 299 305 287 273 339 334 327 325 324 326 324 321 319 323 319 320 316 318 313
134 135 142 143 152 142 131 120 116 113 111 114 98 122 119 123 104 338 305 308 325 31 341 315 320 321 326 336 331 333 327 322 322 323 321 316 313 313
110 114 121 126 130 128 120 119 115 108 111 121 119 122 139 125 133 309 317 324 326 347 331 321 325 326 333 335 335 329 329 329 327 323 318 316 314 313
125 120 114 115 114 106 102 100 105 128 131 123 121 140 119 106 130 28 344 346 355 40 348 316 312 330 332 335 329 329 332 331 325 321 319 316 317 318
123 119 112 112 109 110 106 101 92 88 97 124 128 107 117 138 92 22 354 352 345 326 311 294 334 335 338 331 326 322 329 330 325 324 322 322 319 318
110 118 121 117 113 115 113 99 94 84 81 89 109 110 103 94 83 145 357 344 284 279 343 319 343 331 332 326 319 319 327 327 326 326 324 322 317 318
101 116 118 125 132 126 120 116 110 109 112 97 94 98 105 118 65 48 23 341 341 358 30 345 332 326 320 307 313 318 323 326 326 324 324 322 321 318
114 115 130 138 139 140 134 135 130 125 115 99 87 88 86 75 63 58 15 26 14 350 8 343 330 344 316 291 313 320 323 320 321 319 319 321 321 317
126 135 141 135 130 133 129 125 128 131 120 119 117 102 85 72 56 37 36 26 3 311 304 328 302 323 310 308 311 313 315 317 315 315 315 317 319 319
132 119 121 127 128 125 120 122 125 121 121 120 111 94 84 55 32 20 18 359 321 283 292 291 282 305 303 306 310 310 316 313 314 314 315 314 314 315
120 126 130 127 125 118 116 118 117 115 119 116 115 96 63 43 26 13 1 346 321 310 316 301 288 298 299 287 292 302 313 314 311 317 314 315 314 314
130 122 117 114 113 115 113 110 112 119 121 115 93 72 54 32 22 14 353 350 339 327 321 308 304 301 293 291 295 295 304 312 314 316 317 312 313 313
118 114 120 122 127 124 121 125 121 111 100 89 80 65 47 27 15 7 5 352 339 330 332 333 321 304 285 274 288 296 307 313 316 320 322 314 315 317
130 143 147 148 146 146 140 131 120 110 98 89 75 57 37 14 355 359 353 334 328 329 326 329 333 341 335 321 268 307 315 320 321 321 318 315 314 321
148 153 150 153 153 147 143 139 134 121 102 81 74 51 28 5 2 345 339 333 331 332 332 333 333 346 336 331 315 319 324 319 320 321 320 316 310 310
150 154 155 152 147 147 148 142 130 113 91 83 79 52 22 343 335 338 335 333 336 337 331 335 334 337 326 320 307 306 316 317 324 320 318 316 303 306
150 146 145 148 155 153 146 129 129 134 141 124 101 11 349 336 327 330 328 339 339 334 331 333 322 319 308 298 321 320 323 329 329 319 320 325 328 325
145 144 152 157 154 147 144 145 156 160 157 196 210 229 304 317 314 328 336 332 329 323 313 305 312 328 331 333 324 321 319 327 332 335 338 343 341 331
146 151 161 158 154 154 162 170 195 198 197 204 210 258 269 292 317 318 318 322 320 322 320 319 326 333 333 316 326 322 321 332 335 339 338 349 349 342